Location: Bakov nad Jizerou
(50.4784°N, 14.9394°E)
Time: 02:37:46
(UTC+00:00)

Cosmos 2237 - Visible Passes

Search period start: 23 October 2021 00:00
Search period end: 02 November 2021 00:00
Orbit: 844 x 857 km, 70.8° (Epoch: 22 October)

Date Brightness Start Highest point End Pass type
(mag) Time Alt. Az. Time Alt. Az. Time Alt. Az.
23 Oct 6.5 01:02:09 19° NNE 01:02:23 20° NE 01:06:27 10° E visible
23 Oct 4.4 02:44:16 24° NNW 02:47:46 68° ENE 02:53:27 10° SE visible
23 Oct 5.2 04:27:03 10° NW 04:31:31 24° WSW 04:35:59 10° SSW visible
23 Oct 4.3 17:39:45 10° S 17:45:18 55° ESE 17:50:05 14° NE visible
23 Oct 5.7 19:24:41 10° WSW 19:29:52 34° NW 19:32:08 25° N visible
23 Oct 7.1 21:13:36 10° NW 21:14:12 11° NW 21:14:12 11° NW visible
24 Oct 6.7 00:51:56 17° ENE 00:51:56 17° ENE 00:54:09 10° E visible
24 Oct 4.4 02:34:04 51° N 02:35:27 68° ENE 02:41:09 10° SE visible
24 Oct 5.2 04:16:13 16° WNW 04:19:13 24° WSW 04:23:40 10° SSW visible
24 Oct 4.3 17:27:26 10° S 17:33:00 55° ESE 17:38:36 10° NE visible
24 Oct 5.7 19:12:23 10° WSW 19:17:34 34° NW 19:20:46 20° N visible
24 Oct 7.0 21:01:17 10° NW 21:02:49 12° NNW 21:02:49 12° NNW visible
25 Oct 4.6 02:24:02 59° ESE 02:24:02 59° ESE 02:28:50 10° SE visible
25 Oct 5.2 04:06:11 23° W 04:06:54 24° WSW 04:11:22 10° SSW visible
25 Oct 4.3 17:15:08 10° S 17:20:41 55° ESE 17:26:17 10° NE visible
25 Oct 5.7 19:00:04 10° WSW 19:05:15 34° NW 19:09:12 16° N visible
25 Oct 7.0 20:48:58 10° NW 20:51:14 13° NNW 20:51:14 13° NNW visible
26 Oct 5.7 02:14:02 27° SE 02:14:02 27° SE 02:16:31 10° SE visible
26 Oct 5.5 03:56:11 21° SW 03:56:11 21° SW 03:59:03 10° SSW visible
26 Oct 4.3 17:02:49 10° S 17:08:23 55° ESE 17:13:59 10° NE visible
26 Oct 5.7 18:47:44 10° WSW 18:52:56 34° NW 18:57:28 13° NNE visible
26 Oct 6.9 20:36:39 10° NW 20:39:06 13° NNW 20:39:29 13° NNW visible
27 Oct 6.7 02:04:01 11° SE 02:04:01 11° SE 02:04:12 10° SE visible
27 Oct 6.2 03:46:08 12° SSW 03:46:08 12° SSW 03:46:44 10° SSW visible
27 Oct 4.3 16:50:30 10° S 16:56:03 55° ESE 17:01:40 10° NE visible
27 Oct 5.7 18:35:26 10° WSW 18:40:38 34° NW 18:45:37 11° NNE visible
27 Oct 6.9 20:24:21 10° NW 20:26:47 13° NNW 20:27:38 12° NNW visible
28 Oct 4.4 16:38:12 10° S 16:43:45 55° ESE 16:49:21 10° NE visible
28 Oct 5.7 18:23:07 10° WSW 18:28:19 34° NW 18:33:32 10° NNE visible
28 Oct 6.9 20:12:02 10° NW 20:14:29 13° NNW 20:15:43 12° N visible
29 Oct 4.4 16:25:53 10° S 16:31:27 55° ESE 16:37:03 10° NE visible
29 Oct 5.7 18:10:49 10° WSW 18:16:00 34° NW 18:21:14 10° NNE visible
29 Oct 6.9 19:59:43 10° NW 20:02:10 13° NNW 20:03:44 11° N visible
30 Oct 4.4 16:13:35 10° S 16:19:09 55° ESE 16:24:44 10° NE visible
30 Oct 5.7 17:58:30 10° WSW 18:03:42 34° NW 18:08:55 10° NNE visible
30 Oct 6.8 19:47:25 10° NW 19:49:51 13° NNW 19:51:44 11° N visible
31 Oct 5.7 17:46:12 10° WSW 17:51:23 34° NW 17:56:37 10° NNE visible
31 Oct 6.8 19:35:06 10° NW 19:37:32 13° NNW 19:39:42 11° N visible
01 Nov 5.7 17:33:53 10° WSW 17:39:04 34° NW 17:44:19 10° NNE visible
01 Nov 6.8 19:22:47 10° NW 19:25:14 13° NNW 19:27:39 10° N visible
